Probability
12 12 13 13 13 15 17 18 18 17 16 16 16 16 16 16 15 14 11 10 14 20 24 24 27 32 35 35 35 34 31 26 22 22 26 24 19 15 15 12 6 5 6
11 12 12 13 14 15 16 16 16 16 15 13 13 14 14 13 12 11 9 9 12 18 22 23 25 30 33 33 33 33 32 28 24 24 27 26 21 17 15 11 7 5 7
12 12 12 13 14 14 14 13 13 14 13 11 11 11 10 9 9 8 7 7 8 13 17 19 22 26 28 29 29 31 31 28 25 24 25 25 21 17 14 11 8 7 7
13 13 12 12 12 12 11 10 10 11 11 10 8 8 7 7 7 7 6 6 6 7 11 15 18 21 23 23 24 26 27 26 23 20 21 21 20 16 11 9 9 9 9
11 12 12 12 11 10 9 8 8 9 9 8 6 5 4 4 5 6 6 6 5 5 7 10 12 14 16 18 20 22 24 24 21 18 16 17 17 15 9 5 7 10 11
9 10 11 11 11 11 9 7 7 7 7 6 4 2 2 2 3 4 4 5 5 4 5 6 6 8 10 14 16 19 20 20 19 17 14 14 15 14 9 5 5 8 10
6 8 10 11 11 11 10 7 6 6 5 5 3 1 0 0 1 2 3 4 4 4 4 5 4 5 7 10 13 15 16 16 17 16 15 14 14 13 9 5 5 6 7
5 6 8 10 11 11 9 7 5 4 4 3 2 1 0 0 0 1 2 4 4 4 3 4 3 3 4 6 8 11 14 14 14 14 15 15 15 12 8 5 4 4 4
6 7 8 9 10 10 8 5 4 3 3 2 1 0 0 0 0 0 1 2 3 3 3 3 3 3 3 4 5 7 10 10 10 11 14 15 14 13 10 6 4 2 2
7 7 7 8 9 8 6 4 4 4 3 1 0 0 0 0 0 0 0 0 1 1 1 2 3 3 3 3 3 4 4 5 5 7 11 13 13 12 11 9 6 4 4
7 7 7 7 7 7 6 4 4 4 3 1 0 0 0 0 0 0 0 0 0 0 0 1 2 2 3 3 3 3 3 4 3 4 6 8 9 8 8 9 9 8 7
6 6 6 6 6 6 5 4 3 3 2 0 0 0 0 0 0 0 0 0 0 0 0 0 1 1 1 2 3 3 4 4 4 3 3 4 4 5 5 6 7 8 9
6 6 6 6 5 4 4 4 3 3 2 0 0 0 0 0 0 0 0 0 0 0 0 0 0 0 0 1 2 3 3 3 3 2 2 2 1 2 3 4 4 5 6
4 4 5 5 4 3 3 3 3 3 2 1 0 0 0 0 0 0 0 0 0 0 0 0 0 0 0 0 1 1 2 1 1 1 1 1 0 1 2 2 2 2 3
3 3 3 3 3 3 3 3 3 3 3 2 1 0 0 0 0 0 0 0 0 0 0 0 0 0 0 0 0 0 0 0 0 0 0 0 0 0 1 1 1 1 1
3 2 3 3 3 2 2 3 3 3 3 3 2 1 0 0 0 0 0 0 0 0 0 0 0 0 0 0 0 0 0 0 0 0 0 0 0 0 0 0 0 0 0
3 3 3 3 3 2 1 1 2 3 3 3 3 2 1 0 0 0 0 0 0 0 0 0 0 0 0 0 0 0 0 0 0 0 0 0 0 0 0 0 0 0 0
3 3 2 2 2 2 1 0 1 2 2 3 3 2 1 0 0 0 0 0 0 0 0 0 0 0 0 0 0 0 0 0 0 0 0 0 0 0 0 0 0 0 0
2 1 1 1 1 1 1 1 0 1 1 1 2 1 1 0 0 0 0 0 0 0 0 0 0 0 0 0 0 0 0 0 0 0 0 0 0 0 0 0 0 0 0
1 0 0 0 0 0 1 1 0 0 0 0 0 0 0 0 0 0 0 0 0 0 0 0 0 0 0 0 0 0 0 0 0 0 0 0 0 0 0 0 0 0 0
0 0 0 0 0 0 0 0 0 0 0 0 0 0 0 0 0 0 0 0 0 0 0 0 0 0 0 0 0 0 0 0 0 0 0 0 0 0 0 0 0 0 0
0 0 0 0 0 0 0 0 0 0 0 0 0 0 0 0 0 0 0 0 0 0 0 0 0 0 0 0 0 0 0 0 0 0 0 0 0 0 0 0 0 0 0
0 0 0 0 0 0 0 0 0 0 0 0 0 0 0 0 0 0 0 0 0 0 0 0 0 0 0 0 0 0 0 0 0 0 0 0 0 0 0 0 0 0 0
0 0 0 0 0 0 0 0 0 0 0 0 0 0 0 0 0 0 0 0 0 0 0 0 0 0 0 0 0 0 0 0 0 0 0 0 0 0 0 0 0 0 0
0 0 0 0 0 0 0 0 0 0 0 0 0 0 0 0 0 0 0 0 0 0 0 0 0 0 0 0 0 0 0 0 0 0 0 0 0 0 0 0 0 0 0
0 0 0 0 0 0 0 0 0 0 0 0 0 0 0 0 0 0 0 0 0 0 0 0 0 0 0 0 0 0 0 0 0 0 0 0 0 0 0 0 0 0 0
Wind_Speed
2 2 2 2 2 2 2 2 3 4 4 4 4 5 5 5 5 5 4 10 11 11 13 13 13 13 12 12 12 11 12 12 12 11 11 11 11 11 11 11 11 11 12
2 2 2 2 2 2 3 3 3 3 3 3 3 4 4 5 5 5 5 6 11 12 13 13 13 13 13 12 12 12 12 11 11 11 12 12 11 11 11 12 12 12 11
2 2 2 2 2 2 2 2 2 2 2 2 3 4 3 4 4 5 5 5 5 10 13 13 12 12 13 13 12 12 12 11 12 11 11 12 11 11 11 11 12 12 12
2 2 2 2 2 2 1 2 1 1 2 2 3 3 3 3 4 5 5 5 4 5 8 12 13 13 13 13 13 12 12 12 12 12 12 12 12 12 11 11 12 12 12
1 1 2 2 2 1 1 2 1 2 2 2 3 3 2 3 4 4 4 5 5 4 4 8 12 13 14 14 14 13 13 13 13 13 13 13 13 13 12 12 12 12 12
1 1 1 2 1 1 1 1 2 1 2 2 3 3 3 3 3 3 4 3 3 4 4 5 5 8 13 14 14 14 14 14 14 13 14 14 13 13 13 13 13 13 13
1 1 1 2 1 2 2 2 2 2 2 1 1 3 3 3 3 3 3 3 3 4 4 5 4 4 5 13 14 14 14 14 14 14 14 13 13 13 13 13 14 14 13
1 1 1 2 2 2 2 2 2 1 2 1 1 1 3 4 3 3 3 3 4 3 4 5 5 5 4 3 7 12 12 12 13 13 13 12 12 13 14 14 14 14 14
2 2 2 2 2 2 2 2 2 2 2 2 2 2 1 3 3 3 3 3 3 3 3 3 5 5 5 4 4 8 11 11 12 12 12 11 12 12 14 15 15 15 15
2 2 1 1 2 1 2 3 2 2 2 2 1 2 3 3 2 3 4 3 3 3 4 4 4 4 5 4 5 8 10 11 11 12 11 11 11 12 13 14 14 14 15
2 2 1 1 1 1 2 3 3 2 2 2 2 2 2 2 2 2 4 4 3 3 3 3 3 3 4 4 4 7 10 10 11 11 11 11 11 12 13 13 13 14 15
2 3 2 2 2 2 2 2 2 2 2 2 2 2 2 2 2 2 3 4 4 4 3 2 3 3 3 4 6 9 10 11 11 11 11 11 12 12 13 13 14 14 14
2 3 2 2 2 2 2 2 2 2 2 2 2 2 2 3 3 2 3 3 3 3 2 2 3 3 3 3 5 9 9 10 10 11 11 11 11 11 11 11 12 13 13
3 3 2 3 3 3 2 1 1 2 2 2 3 3 2 3 2 3 3 2 2 3 2 3 2 3 3 3 4 6 5 8 8 9 10 10 10 10 10 10 10 11 11
2 2 2 2 2 2 2 1 1 2 2 2 3 3 2 2 2 2 3 3 3 2 3 3 2 2 2 2 4 3 4 6 7 8 9 9 9 10 10 9 9 10 10
2 2 2 2 2 2 2 1 2 2 2 2 2 2 2 2 2 2 2 2 3 3 3 3 2 3 2 2 3 3 4 6 7 7 8 9 9 9 9 9 10 10 10
1 1 1 2 2 2 2 2 2 2 2 3 2 2 2 2 1 1 1 1 1 2 3 3 2 2 2 2 2 2 2 3 3 6 7 8 8 8 9 9 10 10 10
1 1 1 2 2 2 2 2 3 3 2 2 2 2 2 1 1 1 1 1 1 2 2 3 2 2 2 3 2 3 2 2 2 5 7 8 8 9 9 9 10 10 10
1 1 2 2 2 2 2 3 3 3 2 2 2 2 2 1 2 1 1 1 1 1 1 2 3 2 2 2 2 2 2 2 3 4 6 8 9 9 9 9 9 9 10
1 1 1 1 1 2 3 3 3 3 3 2 2 2 2 2 2 2 1 1 1 1 1 1 2 2 2 2 1 2 2 2 3 3 4 5 7 8 9 9 9 9 9
1 1 1 2 2 2 3 3 3 3 3 3 3 2 2 2 2 2 1 1 1 1 1 1 1 1 2 1 2 2 2 2 2 2 2 3 3 3 5 7 8 9 9
1 2 2 2 3 3 5 5 4 3 3 3 3 3 4 3 4 4 4 3 2 2 2 2 2 2 3 3 2 2 1 1 2 2 1 3 2 3 3 3 6 8 9
1 1 1 2 2 4 6 6 5 3 2 2 2 3 3 3 3 3 4 4 3 3 4 3 3 4 4 4 2 2 2 2 3 3 1 2 2 3 3 3 5 6 6
1 1 2 2 2 4 5 6 6 3 2 2 2 2 2 3 4 3 2 2 2 3 3 3 4 5 5 4 4 3 3 2 2 2 1 2 2 2 2 2 4 5 5
1 1 1 2 3 4 5 6 4 2 2 3 3 2 2 2 4 4 2 2 3 4 4 3 4 4 5 4 3 1 0 0 2 3 1 2 2 2 2 2 3 5 6
1 1 2 2 2 3 5 6 3 1 2 3 3 3 4 4 5 3 1 2 3 4 4 4 4 4 3 4 3 3 3 2 1 2 2 2 2 1 1 2 2 2 3
Wind_Direction
215 219 221 218 224 222 225 229 236 245 248 248 246 241 237 234 231 224 233 234 232 229 225 222 219 214 214 212 212 213 215 216 215 213 212 213 212 211 211 210 212 213 213
218 217 230 221 225 222 224 227 236 240 247 246 253 249 240 237 234 232 234 240 238 231 228 227 225 220 217 214 212 213 214 217 219 217 213 212 210 210 213 213 215 215 214
226 217 225 229 232 233 234 244 253 247 259 264 262 261 251 240 233 233 236 235 236 234 231 229 227 222 220 219 216 215 215 216 219 219 214 210 210 212 216 214 216 217 218
231 229 232 241 243 245 237 237 242 241 255 261 264 267 263 256 247 238 231 229 227 235 236 231 225 223 222 223 222 220 219 217 217 218 217 215 213 213 216 216 217 217 218
243 219 235 247 245 247 254 257 247 226 250 266 264 264 261 253 251 254 242 233 225 224 225 233 229 229 229 227 226 224 221 222 222 221 220 219 217 216 218 220 220 221 220
244 213 236 253 243 236 254 254 259 258 244 255 274 284 275 265 251 245 246 240 226 223 218 225 228 234 235 232 229 227 227 228 228 227 226 224 220 219 220 221 222 223 224
256 251 275 268 250 228 235 241 246 259 261 258 304 310 303 283 263 247 241 238 232 228 222 222 219 219 232 232 230 229 230 233 232 231 230 228 224 222 222 222 222 223 224
274 282 268 262 259 256 267 265 255 242 260 226 175 315 318 323 309 268 249 238 240 230 229 231 221 217 221 222 227 227 230 232 233 233 233 231 228 225 224 225 224 224 225
279 278 277 272 268 250 257 259 244 215 249 262 183 171 204 256 300 301 270 256 249 239 236 236 231 221 214 213 217 224 224 226 230 233 233 230 228 227 228 228 228 228 227
298 290 286 284 275 264 266 266 247 226 215 254 251 208 211 205 226 300 305 286 267 252 244 244 239 228 221 212 215 219 222 220 224 230 232 230 228 229 232 232 232 232 232
301 296 282 276 285 277 276 272 259 236 214 220 230 237 252 250 216 216 278 295 295 267 245 236 234 233 229 220 218 221 220 218 221 226 230 230 228 230 232 231 231 233 234
293 292 285 281 280 270 267 267 268 254 232 221 228 224 224 233 232 216 243 262 272 274 259 241 239 238 233 226 229 226 221 222 223 224 226 229 229 231 233 232 232 234 236
290 284 287 280 275 277 275 273 271 269 255 243 238 238 237 237 226 217 228 255 271 286 289 272 246 239 239 229 234 229 225 224 223 223 224 225 226 230 233 234 235 235 236
258 269 285 285 277 281 294 278 268 258 261 258 262 252 248 247 234 224 216 220 267 289 290 272 273 249 245 234 239 234 234 229 226 225 224 223 224 226 228 231 233 235 237
276 294 307 312 292 281 283 279 279 274 271 262 267 268 262 263 251 236 222 205 203 256 276 276 278 274 263 249 249 241 237 234 226 223 220 220 222 224 227 229 232 233 233
289 308 325 331 329 329 323 313 291 288 286 279 264 268 274 268 266 253 230 218 200 201 239 254 250 260 265 273 263 242 238 237 232 226 223 222 222 223 225 228 230 229 229
297 313 330 348 345 337 336 336 303 297 285 286 286 278 279 279 272 278 259 222 205 189 235 271 261 277 276 274 286 269 244 235 235 231 229 228 226 225 227 231 234 233 231
329 358 22 13 349 344 340 333 323 327 315 311 306 302 290 293 287 280 273 242 219 200 207 262 277 278 269 261 258 266 262 247 242 237 235 235 233 231 230 231 232 231 231
14 23 28 16 352 349 354 338 326 328 321 296 285 278 279 290 294 292 288 272 260 249 206 227 265 266 269 273 286 288 280 272 261 251 241 238 239 238 235 234 234 234 233
34 12 10 357 348 358 359 347 343 341 323 307 293 278 270 260 257 254 260 265 260 262 253 246 266 275 272 275 269 270 283 273 268 272 258 244 241 241 240 238 236 233 234
357 342 3 360 351 356 351 347 341 343 330 324 320 308 296 301 280 257 270 251 238 231 249 244 267 285 282 289 268 256 262 271 269 251 256 258 242 243 244 246 243 236 231
347 9 8 350 346 339 338 340 343 325 325 330 324 317 315 318 319 311 304 281 231 211 218 222 240 247 255 250 249 252 246 264 284 269 213 263 241 248 248 236 243 238 232
339 359 347 339 325 319 326 328 330 319 319 319 314 314 323 331 325 309 311 318 296 270 230 209 222 236 237 235 227 254 242 228 242 255 195 261 257 254 254 256 244 240 236
339 337 321 317 318 320 327 332 333 334 323 308 301 297 307 320 328 327 316 327 311 292 265 234 228 238 237 229 211 214 227 243 270 271 182 236 263 255 264 261 246 234 235
348 316 306 309 312 313 322 326 335 339 332 319 312 317 313 303 310 332 337 316 316 311 305 292 272 261 256 252 223 177 238 135 287 282 226 199 253 272 267 256 253 236 236
278 296 305 293 294 307 314 314 312 307 327 314 316 315 311 306 312 323 323 301 303 299 311 318 315 305 285 275 250 205 198 193 226 266 255 197 229 211 290 275 266 253 242